H1 CPF 2 NER 2024 2 29 9 060 01 glonass147 H2 2311401 9147 57517 2024 2 29 0 0 0 2024 3 3 23 45 0 900 1 1 0 0 0 1 H9 10 0 60369 0.00000 0 -15017287.292 20328893.304 -3510509.094 10 0 60369 900.00000 0 -14559043.134 19868759.023 -6648023.287 10 0 60369 1800.00000 0 -13965199.944 19038706.184 -9656462.483 10 0 60369 2700.00000 0 -13293374.413 17837121.512 -12477346.247 10 0 60369 3600.00000 0 -12601715.939 16275643.999 -15055794.858 10 0 60369 4500.00000 0 -11946303.512 14378896.859 -17341602.355 10 0 60369 5400.00000 0 -11378642.257 12183685.515 -19290220.942 10 0 60369 6300.00000 0 -10943365.979 9737693.224 -20863636.971 10 0 60369 7200.00000 0 -10676243.581 7097727.218 -22031120.839 10 0 60369 8100.00000 0 -10602574.491 4327587.240 -22769835.552 10 0 60369 9000.00000 0 -10736041.928 1495644.340 -23065291.513 10 0 60369 9900.00000 0 -11078073.463 -1327769.745 -22911638.009 10 0 60369 10800.00000 0 -11617736.929 -4073054.195 -22311785.168 10 0 60369 11700.00000 0 -12332176.921 -6673999.686 -21277353.392 10 0 60369 12600.00000 0 -13187574.171 -9070306.944 -19828450.785 10 0 60369 13500.00000 0 -14140587.672 -11209858.210 -17993282.508 10 0 60369 14400.00000 0 -15140218.758 -13050646.767 -15807599.437 10 0 60369 15300.00000 0 -16130018.156 -14562284.094 -13313996.866 10 0 60369 16200.00000 0 -17050542.175 -15727022.042 -10561077.157 10 0 60369 17100.00000 0 -17841953.426 -16540248.075 -7602493.180 10 0 60369 18000.00000 0 -18446655.137 -17010433.992 -4495892.002 10 0 60369 18900.00000 0 -18811846.667 -17158541.941 -1301780.407 10 0 60369 19800.00000 0 -18891891.225 -17016914.636 1917664.450 10 0 60369 20700.00000 0 -18650394.966 -16627698.646 5099814.900 10 0 60369 21600.00000 0 -18061909.163 -16040869.424 8182818.201 10 0 60369 22500.00000 0 -17113183.440 -15311943.350 11106802.897 10 0 60369 23400.00000 0 -15803917.354 -14499475.084 13815041.956 10 0 60369 24300.00000 0 -14146979.041 -13662447.015 16255049.993 10 0 60369 25200.00000 0 -12168082.201 -12857661.595 18379593.542 10 0 60369 26100.00000 0 -9904935.430 -12137246.556 20147595.501 10 0 60369 27000.00000 0 -7405899.790 -11546377.581 21524917.316 10 0 60369 27900.00000 0 -4728210.662 -11121313.340 22485005.176 10 0 60369 28800.00000 0 -1935837.693 -10887824.223 23009389.147 10 0 60369 29700.00000 0 902928.961 -10860079.422 23088027.119 10 0 60369 30600.00000 0 3718067.004 -11040037.766 22719488.192 10 0 60369 31500.00000 0 6440479.101 -11417366.813 21910972.949 10 0 60369 32400.00000 0 9004610.365 -11969892.926 20678170.814 10 0 60369 33300.00000 0 11350919.622 -12664563.228 19044957.393 10 0 60369 34200.00000 0 13428103.883 -13458879.342 17042937.333 10 0 60369 35100.00000 0 15194985.468 -14302743.396 14710840.873 10 0 60369 36000.00000 0 16621984.888 -15140639.731 12093784.730 10 0 60369 36900.00000 0 17692119.325 -15914061.716 9242410.465 10 0 60369 37800.00000 0 18401485.929 -16564082.669 6211915.802 10 0 60369 38700.00000 0 18759210.132 -17033963.554 3060996.445 10 0 60369 39600.00000 0 18786861.258 -17271688.117 -149282.046 10 0 60369 40500.00000 0 18517359.764 -17232318.721 -3356661.206 10 0 60369 41400.00000 0 17993421.690 -16880073.125 -6498893.138 10 0 60369 42300.00000 0 17265605.344 -16190033.702 -9514947.267 10 0 60369 43200.00000 0 16390042.115 -15149415.641 -12346196.921 10 0 60369 44100.00000 0 15425946.798 -13758338.872 -14937562.401 10 0 60369 45000.00000 0 14433012.346 -12030069.176 -17238587.854 10 0 60369 45900.00000 0 13468799.059 -9990716.086 -19204430.470 10 0 60369 46800.00000 0 12586228.667 -7678398.030 -20796742.183 10 0 60369 47700.00000 0 11831289.575 -5141907.652 -21984426.048 10 0 60369 48600.00000 0 11241050.680 -2438931.324 -22744251.965 10 0 60369 49500.00000 0 10842068.288 366104.229 -23061319.134 10 0 60369 50400.00000 0 10649254.112 3204469.373 -22929355.605 10 0 60369 51300.00000 0 10665252.791 6005752.116 -22350848.487 10 0 60369 52200.00000 0 10880355.809 8700552.886 -21337001.729 10 0 60369 53100.00000 0 11272955.868 11223141.241 -19907521.749 10 0 60369 54000.00000 0 11810522.711 13513963.625 -18090234.729 10 0 60369 54900.00000 0 12451059.101 15521897.398 -15920542.762 10 0 60369 55800.00000 0 13144975.015 17206156.883 -13440729.446 10 0 60369 56700.00000 0 13837300.123 18537771.901 -10699128.683 10 0 60369 57600.00000 0 14470140.040 19500577.317 -7749173.397 10 0 60369 58500.00000 0 14985271.283 20091672.965 -4648343.513 10 0 60369 59400.00000 0 15326763.917 20321335.881 -1457034.723 10 0 60369 60300.00000 0 15443519.759 20212390.171 1762628.781 10 0 60369 61200.00000 0 15291617.737 19799062.951 4948013.217 10 0 60369 62100.00000 0 14836366.465 19125376.572 8037200.943 10 0 60369 63000.00000 0 14053976.878 18243146.928 10970198.233 10 0 60369 63900.00000 0 12932784.160 17209674.012 13690101.006 10 0 60369 64800.00000 0 11473967.623 16085223.464 16144195.675 10 0 60369 65700.00000 0 9691738.496 14930406.113 18284974.030 10 0 60369 66600.00000 0 7612988.113 13803566.157 20071043.142 10 0 60369 67500.00000 0 5276411.464 12758287.531 21467913.758 10 0 60369 68400.00000 0 2731142.794 11841122.429 22448653.291 10 0 60369 69300.00000 0 34959.873 11089636.076 22994392.238 10 0 60369 70200.00000 0 -2747868.934 10530848.247 23094675.739 10 0 60369 71100.00000 0 -5549006.393 10180135.239 22747654.790 10 0 60369 72000.00000 0 -8298637.770 10040636.839 21960114.413 10 0 60369 72900.00000 0 -10928126.028 10103191.885 20747338.862 10 0 60369 73800.00000 0 -13372622.630 10346804.328 19132816.635 10 0 60369 74700.00000 0 -15573527.470 10739619.878 17147790.696 10 0 60369 75600.00000 0 -17480697.636 11240372.389 14830661.956 10 0 60369 76500.00000 0 -19054314.748 11800239.709 12226256.510 10 0 60369 77400.00000 0 -20266334.358 12365031.790 9384969.700 10 0 60369 78300.00000 0 -21101457.839 12877619.858 6361802.269 10 0 60369 79200.00000 0 -21557586.600 13280505.157 3215306.134 10 0 60369 80100.00000 0 -21645739.696 13518419.606 6459.180 10 0 60369 81000.00000 0 -21389438.027 13540848.889 -3202509.854 10 0 60369 81900.00000 0 -20823580.550 13304371.329 -6349324.135 10 0 60369 82800.00000 0 -19992859.127 12774713.096 -9372865.942 10 0 60369 83700.00000 0 -18949778.177 11928431.835 -12214364.819 10 0 60369 84600.00000 0 -17752361.976 10754156.067 -14818543.352 10 0 60369 85500.00000 0 -16461645.857 9253326.124 -17134697.798 10 0 60370 0.00000 0 -15139056.971 7440403.367 -19117691.882 10 0 60370 900.00000 0 -13843794.273 5342535.541 -20728844.838 10 0 60370 1800.00000 0 -12630320.131 2998692.507 -21936693.182 10 0 60370 2700.00000 0 -11546067.211 458303.232 -22717614.315 10 0 60370 3600.00000 0 -10629459.464 -2220548.418 -23056296.458 10 0 60370 4500.00000 0 -9908330.352 -4973295.986 -22946046.255 10 0 60370 5400.00000 0 -9398805.537 -7731341.065 -22388927.264 10 0 60370 6300.00000 0 -9104697.429 -10424680.607 -21395726.063 10 0 60370 7200.00000 0 -9017437.345 -12984601.534 -19985746.123 10 0 60370 8100.00000 0 -9116548.069 -15346330.190 -18186433.070 10 0 60370 9000.00000 0 -9370636.580 -17451525.854 -16032838.361 10 0 60370 9900.00000 0 -9738864.427 -19250513.844 -13566931.832 10 0 60370 10800.00000 0 -10172832.724 -20704164.722 -10836776.715 10 0 60370 11700.00000 0 -10618800.937 -21785340.998 -7895583.687 10 0 60370 12600.00000 0 -11020144.238 -22479851.087 -4800663.204 10 0 60370 13500.00000 0 -11319944.003 -22786871.325 -1612297.527 10 0 60370 14400.00000 0 -11463600.399 -22718819.523 1607444.430 10 0 60370 15300.00000 0 -11401355.172 -22300686.956 4795925.099 10 0 60370 16200.00000 0 -11090616.883 -21568858.727 7891164.244 10 0 60370 17100.00000 0 -10497989.515 -20569474.072 10833048.179 10 0 60370 18000.00000 0 -9600918.385 -19356397.480 13564498.042 10 0 60370 18900.00000 0 -8388883.828 -17988887.576 16032574.226 10 0 60370 19800.00000 0 -6864092.512 -16529062.942 18189495.820 10 0 60370 20700.00000 0 -5041637.601 -15039271.973 19993555.903 10 0 60370 21600.00000 0 -2949121.251 -13579477.199 21409916.079 10 0 60370 22500.00000 0 -625755.347 -12204763.129 22411266.223 10 0 60370 23400.00000 0 1879022.172 -10963070.939 22978338.137 10 0 60370 24300.00000 0 4507358.210 -9893253.307 23100264.724 10 0 60370 25200.00000 0 7195148.239 -9023528.986 22774779.009 10 0 60370 26100.00000 0 9874464.144 -8370400.030 22008250.229 10 0 60370 27000.00000 0 12476146.978 -7938075.258 20815556.905 10 0 60370 27900.00000 0 14932458.783 -7718422.774 19219799.537 10 0 60370 28800.00000 0 17179685.184 -7691452.588 17251858.192 10 0 60370 29700.00000 0 19160582.461 -7826308.666 14949802.914 10 0 60370 30600.00000 0 20826568.893 -8082728.739 12358167.328 10 0 60370 31500.00000 0 22139570.395 -8412910.914 9527098.358 10 0 60370 32400.00000 0 23073444.355 -8763709.153 6511397.265 10 0 60370 33300.00000 0 23614922.655 -9079065.825 3369469.389 10 0 60370 34200.00000 0 23764034.473 -9302579.366 162201.936 10 0 60370 35100.00000 0 23533990.828 -9380099.048 -3048209.209 10 0 60370 36000.00000 0 22950535.149 -9262237.298 -6199461.421 10 0 60370 36900.00000 0 22050786.393 -8906692.986 -9230352.856 10 0 60370 37800.00000 0 20881622.561 -8280286.652 -12081972.114 10 0 60370 38700.00000 0 19497671.828 -7360620.311 -14698846.620 10 0 60370 39600.00000 0 17958995.194 -6137290.044 -17030026.983 10 0 60370 40500.00000 0 16328557.725 -4612598.119 -19030085.691 10 0 60370 41400.00000 0 14669594.516 -2801732.367 -20660010.125 10 0 60370 42300.00000 0 13042982.122 -732402.900 -21887971.866 10 0 60370 43200.00000 0 11504726.169 1556050.837 -22689956.683 10 0 60370 44100.00000 0 10103670.960 4014047.359 -23050242.324 10 0 60370 45000.00000 0 8879527.710 6583588.388 -22961714.169 10 0 60370 45900.00000 0 7861304.566 9200447.095 -22426011.994 10 0 60370 46800.00000 0 7066204.623 11796628.814 -21453504.419 10 0 60370 47700.00000 0 6499038.320 14303001.865 -20063091.030 10 0 60370 48600.00000 0 6152174.750 16651988.747 -18281835.617 10 0 60370 49500.00000 0 6006033.473 18780205.038 -16144437.402 10 0 60370 50400.00000 0 6030095.323 20630935.346 -13692550.551 10 0 60370 51300.00000 0 6184388.471 22156342.320 -10973965.417 10 0 60370 52200.00000 0 6421385.656 23319315.986 -8041667.961 10 0 60370 53100.00000 0 6688230.826 24094885.850 -4952796.471 10 0 60370 54000.00000 0 6929199.318 24471136.896 -1767516.900 10 0 60370 54900.00000 0 7088285.831 24449591.763 1452160.097 10 0 60370 55800.00000 0 7111809.071 24045044.203 4643596.151 10 0 60370 56700.00000 0 6950921.531 23284852.307 7744751.357 10 0 60370 57600.00000 0 6563917.240 22207722.950 10695394.841 10 0 60370 58500.00000 0 5918239.272 20862040.268 13438275.526 10 0 60370 59400.00000 0 4992102.010 19303810.052 15920230.122 10 0 60370 60300.00000 0 3775659.725 17594307.660 18093207.080 10 0 60370 61200.00000 0 2271672.532 15797528.942 19915187.287 10 0 60370 62100.00000 0 495641.976 13977551.304 21350984.714 10 0 60370 63000.00000 0 -1524589.277 12195914.968 22372912.905 10 0 60370 63900.00000 0 -3749756.898 10509133.099 22961305.848 10 0 60370 64800.00000 0 -6130575.518 8966433.332 23104884.704 10 0 60370 65700.00000 0 -8609562.823 7607823.285 22800964.616 10 0 60370 66600.00000 0 -11123212.305 6462558.848 22055498.659 10 0 60370 67500.00000 0 -13604425.718 5548077.276 20882958.752 10 0 60370 68400.00000 0 -15985105.823 4869437.878 19306056.008 10 0 60370 69300.00000 0 -18198803.409 4419292.312 17355305.722 10 0 60370 70200.00000 0 -20183310.274 4178384.719 15068444.746 10 0 60370 71100.00000 0 -21883091.869 4116560.223 12489711.522 10 0 60370 72000.00000 0 -23251459.519 4194239.385 9669001.575 10 0 60370 72900.00000 0 -24252392.518 4364296.882 6660913.529 10 0 60370 73800.00000 0 -24861934.462 4574265.772 3523702.925 10 0 60370 74700.00000 0 -25069105.401 4768774.965 318163.087 10 0 60370 75600.00000 0 -24876291.245 4892117.416 -2893546.064 10 0 60370 76500.00000 0 -24299093.374 4890840.748 -6049099.090 10 0 60370 77400.00000 0 -23365643.853 4716250.609 -9087212.857 10 0 60370 78300.00000 0 -22115413.998 4326720.334 -11948837.643 10 0 60370 79200.00000 0 -20597565.329 3689708.214 -14578308.113 10 0 60370 80100.00000 0 -18868911.334 2783395.664 -16924431.341 10 0 60370 81000.00000 0 -16991574.935 1597875.286 -18941490.171 10 0 60370 81900.00000 0 -15030439.562 135836.600 -20590141.831 10 0 60370 82800.00000 0 -13050500.563 -1587281.717 -21838193.643 10 0 60370 83700.00000 0 -11114228.034 -3543681.761 -22661240.113 10 0 60370 84600.00000 0 -9279051.770 -5694124.332 -23043148.388 10 0 60370 85500.00000 0 -7595074.012 -7989338.264 -22976381.966 10 0 60371 0.00000 0 -6103106.221 -10371863.476 -22462155.841 10 0 60371 900.00000 0 -4833111.574 -12778253.056 -21510419.122 10 0 60371 1800.00000 0 -3803120.488 -15141539.711 -20139665.726 10 0 60371 2700.00000 0 -3018661.799 -17393867.944 -18376575.518 10 0 60371 3600.00000 0 -2472734.989 -19469178.548 -16255493.185 10 0 60371 4500.00000 0 -2146322.992 -21305833.950 -13817754.778 10 0 60371 5400.00000 0 -2009422.899 -22849073.705 -11110875.262 10 0 60371 6300.00000 0 -2022549.668 -24053196.746 -8187613.362 10 0 60371 7200.00000 0 -2138647.605 -24883378.446 -5104932.729 10 0 60371 8100.00000 0 -2305327.004 -25317046.173 -1922880.629 10 0 60371 9000.00000 0 -2467329.429 -25344755.815 1296592.819 10 0 60371 9900.00000 0 -2569115.553 -24970533.150 4490850.623 10 0 60371 10800.00000 0 -2557464.410 -24211666.780 7597795.289 10 0 60371 11700.00000 0 -2383972.865 -23097962.687 10557080.746 10 0 60371 12600.00000 0 -2007348.684 -21670493.293 13311285.593 10 0 60371 13500.00000 0 -1395399.880 -19979895.034 15807024.623 10 0 60371 14400.00000 0 -526636.249 -18084287.216 17995977.268 10 0 60371 15300.00000 0 608584.187 -16046900.289 19835813.621 10 0 60371 16200.00000 0 2007411.777 -13933513.302 21291001.185 10 0 60371 17100.00000 0 3654391.559 -11809807.482 22333478.045 10 0 60371 18000.00000 0 5521883.919 -9738745.770 22943180.942 10 0 60371 18900.00000 0 7571002.102 -7778086.324 23108419.548 10 0 60371 19800.00000 0 9753027.908 -5978131.951 22826091.062 10 0 60371 20700.00000 0 12011247.368 -4379807.256 22101732.040 10 0 60371 21600.00000 0 14283131.143 -3013141.584 20949407.151 10 0 60371 22500.00000 0 16502770.376 -1896218.931 19391437.219 10 0 60371 23400.00000 0 18603468.242 -1034636.951 17457971.600 10 0 60371 24300.00000 0 20520381.003 -421496.195 15186412.527 10 0 60371 25200.00000 0 22193100.108 -37919.108 12620701.571 10 0 60371 26100.00000 0 23568068.987 145923.502 9810480.888 10 0 60371 27000.00000 0 24600734.578 169321.715 6810144.222 10 0 60371 27900.00000 0 25257344.205 79133.985 3677794.809 10 0 60371 28800.00000 0 25516312.603 -72427.799 474129.368 10 0 60371 29700.00000 0 25369101.457 -230242.630 -2738731.022 10 0 60371 30600.00000 0 24820573.750 -338851.118 -5898441.039 10 0 60371 31500.00000 0 23888807.003 -345044.002 -8943639.139 10 0 60371 32400.00000 0 22604372.004 -200358.662 -11815140.005 10 0 60371 33300.00000 0 21009106.018 136622.680 -14457088.038 10 0 60371 34200.00000 0 19154430.803 698271.390 -16818048.980 10 0 60371 35100.00000 0 17099284.960 1506293.557 -18852017.933 10 0 60371 36000.00000 0 14907756.515 2570564.046 -20519323.563 10 0 60371 36900.00000 0 12646514.442 3888464.692 -21787410.226 10 0 60371 37800.00000 0 10382146.395 5444756.654 -22631482.164 10 0 60371 38700.00000 0 8178514.021 7211994.461 -23034996.614 10 0 60371 39600.00000 0 6094236.603 9151466.307 -22989995.564 10 0 60371 40500.00000 0 4180408.461 11214622.797 -22497269.118 10 0 60371 41400.00000 0 2478645.717 13344935.591 -21566346.711 10 0 60371 42300.00000 0 1019544.222 15480108.866 -20215315.806 10 0 60371 43200.00000 0 -178386.982 17554551.393 -18470471.218 10 0 60371 44100.00000 0 -1109272.417 19502005.632 -16365801.591 10 0 60371 45000.00000 0 -1779874.998 21258223.300 -13942322.996 10 0 60371 45900.00000 0 -2209059.887 22763574.582 -11247272.811 10 0 60371 46800.00000 0 -2426741.445 23965480.868 -8333180.049 10 0 60371 47700.00000 0 -2472359.447 24820568.155 -5256831.005 10 0 60371 48600.00000 0 -2392950.871 25296450.214 -2078151.374 10 0 60371 49500.00000 0 -2240900.773 25373066.423 1140972.248 10 0 60371 50400.00000 0 -2071469.406 25043518.218 4337907.256 10 0 60371 51300.00000 0 -1940201.986 24314369.637 7450501.513 10 0 60371 52200.00000 0 -1900332.227 23205400.266 10418296.575 10 0 60371 53100.00000 0 -2000290.581 21748822.211 13183703.365 10 0 60371 54000.00000 0 -2281423.152 19987995.257 15693117.184 10 0 60371 54900.00000 0 -2776017.857 17975695.301 17897950.619 10 0 60371 55800.00000 0 -3505720.949 15772009.592 19755564.899 10 0 60371 56700.00000 0 -4480410.187 13441947.318 21230082.700 10 0 60371 57600.00000 0 -5697571.571 11052865.407 22293068.009 10 0 60371 58500.00000 0 -7142205.397 8671816.360 22924061.354 10 0 60371 59400.00000 0 -8787265.335 6362927.540 23110961.592 10 0 60371 60300.00000 0 -10594612.334 4184919.422 22850248.244 10 0 60371 61200.00000 0 -12516443.965 2188864.147 22147041.164 10 0 60371 62100.00000 0 -14497140.459 416275.505 21014997.095 10 0 60371 63000.00000 0 -16475451.707 -1102392.340 19476045.382 10 0 60371 63900.00000 0 -18386935.472 -2348776.790 17559967.732 10 0 60371 64800.00000 0 -20166546.757 -3317128.154 15303829.569 10 0 60371 65700.00000 0 -21751271.831 -4014299.895 12751272.970 10 0 60371 66600.00000 0 -23082698.280 -4459209.061 9951683.756 10 0 60371 67500.00000 0 -24109414.711 -4681789.974 6959247.565 10 0 60371 68400.00000 0 -24789140.278 -4721485.187 3831911.957 10 0 60371 69300.00000 0 -25090494.984 -4625336.992 630273.617 10 0 60371 70200.00000 0 -24994336.142 -4445759.616 -2583588.622 10 0 60371 71100.00000 0 -24494604.117 -4238085.782 -5747312.880 10 0 60371 72000.00000 0 -23598640.668 -4057991.147 -8799462.382 10 0 60371 72900.00000 0 -22326965.115 -3958905.570 -11680719.228 10 0 60371 73800.00000 0 -20712516.169 -3989521.126 -14335040.322 10 0 60371 74700.00000 0 -18799389.769 -4191503.047 -16710752.546 10 0 60371 75600.00000 0 -16641124.447 -4597501.514 -18761565.347 10 0 60371 76500.00000 0 -14298604.928 -5229549.783 -20447480.448 10 0 60371 77400.00000 0 -11837670.857 -6097918.023 -21735580.310 10 0 60371 78300.00000 0 -9326530.100 -7200473.087 -22600679.388 10 0 60371 79200.00000 0 -6833084.381 -8522573.145 -23025824.862 10 0 60371 80100.00000 0 -4422278.936 -10037503.476 -23002636.473 10 0 60371 81000.00000 0 -2153586.873 -11707436.767 -22531478.212 10 0 60371 81900.00000 0 -78733.419 -13484878.970 -21621457.981 10 0 60371 82800.00000 0 1760244.836 -15314540.932 -20290254.655 10 0 60371 83700.00000 0 3332524.629 -17135557.824 -18563775.527 10 0 60371 84600.00000 0 4619541.232 -18883963.277 -16475650.494 10 0 60371 85500.00000 0 5615511.018 -20495314.063 -14066572.783 10 0 60372 0.00000 0 6327410.415 -21907354.342 -11383499.490 10 0 60372 900.00000 0 6774413.897 -23062607.441 -8478726.459 10 0 60372 1800.00000 0 6986815.475 -23910783.499 -5408859.924 10 0 60372 2700.00000 0 7004482.412 -24410903.444 -2233701.164 10 0 60372 3600.00000 0 6874907.553 -24533047.489 984929.450 10 0 60372 4500.00000 0 6650945.154 -24259655.128 4184406.227 10 0 60372 5400.00000 0 6388327.866 -23586321.992 7302524.714 10 0 60372 6300.00000 0 6143071.638 -22522060.574 10278716.191 10 0 60372 7200.00000 0 5968879.626 -21089014.737 13055225.753 10 0 60372 8100.00000 0 5914655.734 -19321640.999 15578230.786 10 0 60372 9000.00000 0 6022233.180 -17265391.984 17798878.324 10 0 60372 9900.00000 0 6324413.893 -14974958.079 19674221.710 10 0 60372 10800.00000 0 6843400.904 -12512141.404 21168039.451 10 0 60372 11700.00000 0 7589689.097 -9943450.972 22251521.756 10 0 60372 12600.00000 0 8561460.235 -7337518.931 22903812.931 10 0 60372 13500.00000 0 9744507.069 -4762444.522 23112400.705 10 0 60372 14400.00000 0 11112689.463 -2283174.768 22873346.325 10 0 60372 15300.00000 0 12628903.462 40971.046 22191352.085 10 0 60372 16200.00000 0 14246523.318 2158532.332 21079665.739 10 0 60372 17100.00000 0 15911257.097 4027803.089 19559823.887 10 0 60372 18000.00000 0 17563339.540 5618315.968 17661239.167 10 0 60372 18900.00000 0 19139971.984 6911854.610 15420638.596 10 0 60372 19800.00000 0 20577908.882 7902953.648 12881362.996 10 0 60372 20700.00000 0 21816084.032 8598866.556 10092539.920 10 0 60372 21600.00000 0 22798167.767 9019003.454 7108144.784 10 0 60372 22500.00000 0 23474948.655 9193862.712 3985967.184 10 0 60372 23400.00000 0 23806440.074 9163501.228 786501.327 10 0 60372 24300.00000 0 23763623.024 8975607.533 -2428218.743 10 0 60372 25200.00000 0 23329751.203 8683258.636 -5595817.163 10 0 60372 26100.00000 0 22501162.356 8342455.032 -8654784.462 10 0 60372 27000.00000 0 21287560.281 8009537.889 -11545672.551 10 0 60372 27900.00000 0 19711753.922 7738597.771 -14212253.040 10 0 60372 28800.00000 0 17808862.716 7578984.902 -16602615.906 10 0 60372 29700.00000 0 15625019.793 7573027.031 -18670186.639 10 0 60372 30600.00000 0 13215625.801 7754052.438 -20374641.453 10 0 60372 31500.00000 0 10643225.192 8144802.961 -21682702.114 10 0 60372 32400.00000 0 7975092.776 8756305.572 -22568794.252 10 0 60372 33300.00000 0 5280630.699 9587251.753 -23015555.721 10 0 60372 34200.00000 0 2628684.153 10623912.461 -23014184.460 10 0 60372 35100.00000 0 84887.702 11840593.782 -22564618.494 10 0 60372 36000.00000 0 -2290847.121 13200615.406 -21675543.966 10 0 60372 36900.00000 0 -4446597.985 14657771.721 -20364230.541 10 0 60372 37800.00000 0 -6340357.135 16158214.672 -18656196.952 10 0 60372 38700.00000 0 -7941535.715 17642679.386 -16584712.900 10 0 60372 39600.00000 0 -9231984.517 19048958.694 -14190146.954 10 0 60372 40500.00000 0 -10206489.216 20314521.849 -11519173.285 10 0 60372 41400.00000 0 -10872720.468 21379166.377 -8623853.133 10 0 60372 42300.00000 0 -11250642.530 22187590.365 -5560609.633 10 0 60372 43200.00000 0 -11371407.147 22691775.897 -2389116.938 10 0 60372 44100.00000 0 -11275781.455 22853082.339 828873.581 10 0 60372 45000.00000 0 -11012178.439 22643960.717 4030745.923 10 0 60372 45900.00000 0 -10634375.305 22049216.749 7154246.060 10 0 60372 46800.00000 0 -10199018.099 21066769.476 10138697.649 10 0 60372 47700.00000 0 -9763019.652 19707874.078 12926182.482 10 0 60372 48600.00000 0 -9380961.887 17996800.202 15462662.413 10 0 60372 49500.00000 0 -9102612.792 15969980.138 17699021.120 10 0 60372 50400.00000 0 -8970662.871 13674663.277 19592006.046 10 0 60372 51300.00000 0 -9018776.083 11167133.708 21105053.286 10 0 60372 52200.00000 0 -9270036.564 8510565.496 22208980.766 10 0 60372 53100.00000 0 -9735855.533 5772604.832 22882537.784 10 0 60372 54000.00000 0 -10415383.343 3022778.862 23112801.813 10 0 60372 54900.00000 0 -11295450.617 329837.640 22895416.323 10 0 60372 55800.00000 0 -12351040.483 -2240862.072 22234666.144 10 0 60372 56700.00000 0 -13546272.128 -4629824.543 21143389.671 10 0 60372 57600.00000 0 -14835854.935 -6785634.069 19642729.927 10 0 60372 58500.00000 0 -16166953.150 -8666835.176 17761729.149 10 0 60372 59400.00000 0 -17481384.204 -10243397.838 15536774.154 10 0 60372 60300.00000 0 -18718059.930 -11497708.419 13010902.289 10 0 60372 61200.00000 0 -19815569.753 -12425046.306 10232980.229 10 0 60372 62100.00000 0 -20714798.672 -13033527.204 7256770.271 10 0 60372 63000.00000 0 -21361471.070 -13343515.944 4139900.908 10 0 60372 63900.00000 0 -21708513.910 -13386533.542 942760.589 10 0 60372 64800.00000 0 -21718139.934 -13203704.267 -2272664.803 10 0 60372 65700.00000 0 -21363562.675 -12843807.795 -5443988.812 10 0 60372 66600.00000 0 -20630270.023 -12361018.209 -8509632.638 10 0 60372 67500.00000 0 -19516801.299 -11812425.016 -11410021.286 10 0 60372 68400.00000 0 -18034993.336 -11255440.782 -14088744.201 10 0 60372 69300.00000 0 -16209683.251 -10745205.116 -16493657.356 10 0 60372 70200.00000 0 -14077878.375 -10332095.139 -18577904.849 10 0 60372 71100.00000 0 -11687426.243 -10059448.342 -20300839.524 10 0 60372 72000.00000 0 -9095238.647 -9961595.021 -21628824.050 10 0 60372 72900.00000 0 -6365142.664 -10062284.497 -22535896.217 10 0 60372 73800.00000 0 -3565447.347 -10373572.839 -23004284.885 10 0 60372 74700.00000 0 -766326.966 -10895220.311 -23024765.885 10 0 60372 75600.00000 0 1962870.456 -11614625.219 -22596850.340 10 0 60372 76500.00000 0 4556277.286 -12507298.037 -21728801.174 10 0 60372 77400.00000 0 6954012.349 -13537856.712 -20437476.903 10 0 60372 78300.00000 0 9104434.386 -14661501.747 -18748005.373 10 0 60372 79200.00000 0 10966048.843 -15825909.108 -16693293.446 10 0 60372 80100.00000 0 12508988.496 -16973460.956 -14313382.104 10 0 60372 81000.00000 0 13716006.453 -18043719.613 -11654659.706 10 0 60372 81900.00000 0 14582940.819 -18976039.581 -8768949.099 10 0 60372 82800.00000 0 15118632.725 -19712206.360 -5712487.136 10 0 60372 83700.00000 0 15344302.841 -20198989.606 -2544817.406 10 0 60372 84600.00000 0 15292414.556 -20390501.841 672381.097 10 0 60372 85500.00000 0 15005073.873 -20250262.310 3876505.294 99